Location: Entraunes
(44.1815°N, 6.7509°E)
Time: 00:31:50
(UTC+00:00)

Daily predictions for brighter satellites

Satellite Brightness Start Highest point End
(mag) Time Altitude Azimuth Time Altitude Azimuth Time Altitude Azimuth
Cosmos 2082 Rocket 4.4 02:51:57 16° N 02:51:57 16° N 02:53:13 10° N
Cosmos 2322 Rocket 4.0 02:51:37 23° SE 02:51:37 23° SE 02:53:45 10° SE
Lacrosse 5 3.9 02:56:07 22° SE 02:56:07 22° SE 02:57:51 10° SE
ARIANE 5 R/B 4.4 02:50:12 10° NNE 02:52:07 23° NNE 02:52:07 23° NNE
Cosmos 2360 Rocket 3.2 02:56:00 42° NE 02:56:44 44° ENE 03:02:08 10° SE
Lacrosse 5 rocket 4.1 03:03:52 14° NNE 03:03:52 14° NNE 03:04:48 10° NNE
Cosmos 2218 Rocket 4.2 03:01:03 10° N 03:07:28 70° E 03:13:46 10° SSE
Cosmos 2333 Rocket 3.9 03:03:16 10° N 03:08:15 30° NE 03:13:17 10° ESE
FENGYUN 3A 4.2 03:04:42 10° NNE 03:10:04 57° E 03:10:26 55° ESE
CZ-4C R/B 3.3 03:10:03 31° NNW 03:13:50 63° NE 03:22:11 10° SE
USA 308 4.4 03:20:43 34° E 03:20:43 34° E 03:23:38 10° ENE
COSMOS 2455 3.8 03:26:17 33° NNW 03:26:17 33° NNW 03:30:21 10° NNE
Cosmos 1953 3.6 03:27:39 38° ENE 03:27:57 39° ENE 03:31:42 10° SSE
ISS -1.3 03:32:54 23° E 03:32:54 23° E 03:34:31 10° ENE
USA 234 4.5 03:25:56 10° ENE 03:31:50 35° SE 03:37:12 12° S
APEX 4.0 03:32:10 87° NNW 03:32:10 87° NNW 03:37:07 10° NNE
Cosmos 158 Rocket 3.9 03:39:56 59° S 03:40:50 77° ESE 03:45:49 10° NNE
BREEZE-M DEB (TANK) 3.9 03:45:32 23° ENE 03:45:32 23° ENE 03:46:28 10° E
In-Cosmos 22 4.0 03:47:22 65° WNW 03:47:22 65° WNW 03:52:26 10° N
ALOS 2.4 03:42:49 10° N 03:46:48 61° NNW 03:46:48 61° NNW
Cosmos 1959 Rocket 4.4 03:41:51 10° NNW 03:47:51 61° W 03:53:54 10° S
Cosmos 1975 Rocket 3.8 03:43:47 10° S 03:48:06 54° E 03:52:28 10° NNE
Cosmos 864 Rocket 4.4 03:44:44 10° NNW 03:50:50 59° W 03:56:57 10° S
CZ-4B R/B 3.6 03:48:36 10° N 03:53:31 56° WNW 03:53:31 56° WNW
METEOR-M 4.1 03:49:33 10° NNE 03:54:56 86° E 04:00:17 10° SSW
Cosmos 2237 4.3 03:56:11 50° WSW 03:56:11 50° WSW 04:01:24 10° S
PAYLOAD A 4.5 03:51:10 10° N 03:55:21 44° NW 03:55:21 44° NW
Cosmos 2366 rocket 4.1 03:51:02 10° NNW 03:57:09 52° W 04:03:15 10° SSW
Atlas Centaur 2 4.4 03:54:12 13° SSW 03:57:30 18° S 04:01:24 10° SE
SME Rocket 4.1 03:54:15 10° S 03:58:40 40° SW 03:58:40 40° SW
CZ-2C R/B 4.1 03:58:13 10° N 04:00:02 27° N 04:00:02 27° N
USA 276 3.1 04:03:15 44° NE 04:03:15 44° NE 04:05:33 10° ENE
Cosmos 1484 Rocket 2.6 04:01:06 10° N 04:04:57 81° WNW 04:05:23 69° SW
USA 305 2.7 04:05:38 70° W 04:06:01 80° NW 04:10:15 10° NE
Cosmos 1833 4.1 04:04:12 37° SW 04:06:27 68° WNW 04:12:05 10° NNE
PSLV R/B 3.4 04:03:18 10° NNE 04:07:42 83° WNW 04:11:01 17° SSW
Cosmos 2084 3.4 04:10:14 46° NW 04:11:31 80° SW 04:16:02 10° SSE
Cosmos 1538 Rocket 4.2 04:11:17 40° WSW 04:12:45 52° WNW 04:18:01 10° NNE
COSMOS 2428 3.3 04:07:34 10° NNW 04:13:11 56° ENE 04:18:48 10° SE
SL-4 R/B 2.2 04:13:17 50° SW 04:13:34 51° SW 04:17:32 10° SE
CZ-2C R/B 4.0 04:08:32 10° SE 04:13:40 41° ENE 04:18:54 10° N
Cosmos 304 Rocket 4.3 04:17:27 38° WSW 04:17:27 38° WSW 04:21:28 10° S
Cosmos 2333 4.1 04:13:29 10° NNW 04:19:16 76° WSW 04:25:02 10° SSE
Cosmos 44 Rocket 4.0 04:14:45 12° NNW 04:19:17 54° NE 04:24:01 10° SE
CZ-2C R/B 3.5 04:15:19 10° N 04:18:12 25° NW 04:18:12 25° NW
Meteor 1-16 Rocket 4.4 04:25:54 10° NNW 04:30:59 43° W 04:35:59 10° SSW
Nadezhda 3 Rocket 3.9 04:24:55 10° SSW 04:31:01 69° W 04:37:12 10° N
YAOGAN 6 3.2 04:27:57 10° NNE 04:31:28 57° E 04:35:00 10° S
Cosmos 2322 Rocket 3.7 04:33:33 18° SW 04:33:33 18° SW 04:35:49 10° SSW
Cosmos 1900 4.3 04:30:01 24° SW 04:32:47 57° NW 04:37:36 10° NNE
Cosmos 1626 3.1 04:33:48 29° NW 04:33:48 29° NW 04:36:22 10° N
ARIANE 5 R/B 4.2 04:30:38 10° NNW 04:32:26 15° NW 04:32:26 15° NW
Lacrosse 5 3.2 04:35:23 20° SW 04:35:23 20° SW 04:38:54 10° SSW
USA 307 3.0 04:34:36 32° W 04:36:19 56° NNW 04:40:26 10° NE
Cosmos 2219 Rocket 2.1 04:30:57 10° NNW 04:36:37 78° WSW 04:42:17 10° SSE
USA 306 3.1 04:35:45 31° W 04:37:29 52° NNW 04:41:38 10° NE
SJ-12 4.0 04:33:38 10° NNE 04:37:42 76° E 04:41:46 10° S
Cosmos 1818 3.5 04:32:39 12° NW 04:37:50 77° WSW 04:43:15 10° SSE
Cosmos 2360 Rocket 2.9 04:37:54 21° WNW 04:40:31 30° WSW 04:45:21 10° SSW
Cosmos 1821 Rocket 4.1 04:35:37 10° NNW 04:41:33 50° W 04:47:24 10° SSW
Lacrosse 5 rocket 3.6 04:39:28 11° NNW 04:41:41 15° N 04:44:22 10° NE
Cosmos 1867 4.3 04:40:40 10° SSW 04:45:59 56° ESE 04:51:21 10° NE
NOSS 0 Rocket 4.4 04:40:53 10° NNW 04:47:00 62° ENE 04:53:05 10° SE
Cosmos 2237 Rocket 3.5 04:42:25 10° NNW 04:47:46 40° ENE 04:53:03 10° SE
Cosmos 1025 Rocket 3.0 04:43:56 10° SSW 04:48:09 54° W 04:52:22 10° N
ADEOS 4.4 04:44:18 10° NNE 04:49:26 55° E 04:54:33 10° S
Cosmos 1934 Rocket 3.9 04:43:35 10° N 04:49:42 81° W 04:55:54 10° S
Envisat 3.0 04:45:29 10° NNE 04:50:36 87° ESE 04:55:41 10° SSW
ERBS 2.1 04:48:44 17° SW 04:51:05 87° NW 04:54:22 10° NE
Cosmos 2056 Rocket 3.7 04:46:15 10° NNW 04:51:28 74° ENE 04:56:44 10° SSE
Cosmos 923 Rocket 4.1 04:46:38 10° SW 04:51:42 53° WNW 04:56:48 10° NNE
Cosmos 2333 Rocket 2.5 04:47:14 10° NW 04:52:44 47° WSW 04:58:12 10° S
Cosmos 1680 Rocket 3.5 04:47:51 10° SSW 04:53:04 68° WNW 04:58:21 10° NNE
USA 308 3.4 04:56:49 18° W 04:59:34 42° NNW 05:03:37 10° NE
Cosmos 1455 4.1 04:57:55 10° N 05:01:20 33° ENE 05:04:43 10° SE
CZ-4C R/B 3.6 04:55:32 10° NW 05:02:23 37° WSW 05:10:00 10° S
Cosmos 1953 3.8 05:03:36 16° W 05:03:58 16° W 05:06:28 10° SW
H-2A R/B 2.7 05:00:58 10° N 05:04:40 54° WNW 05:08:18 10° SSW
Meteor 1-31 Rocket 2.7 05:03:42 10° N 05:07:27 61° WNW 05:11:11 10° SSW
Cosmos 1441 Rocket 4.0 05:04:27 10° SW 05:07:43 28° WNW 05:10:58 10° NNW
ISS -3.0 05:05:54 17° W 05:08:11 39° NNW 05:11:23 10° NE
Cosmos 1536 Rocket 3.5 05:04:10 10° SSW 05:08:33 74° W 05:12:56 10° N
Cosmos 1300 3.3 05:06:23 10° NNW 05:09:49 32° W 05:13:13 10° SSW
Meteor 2-5 Rocket 3.7 05:05:07 10° SSW 05:10:36 64° WNW 05:16:12 10° N
COSMO-SKYMED 1 2.7 05:06:53 10° S 05:11:07 51° W 05:15:22 10° NNW
CZ-4B R/B 3.8 05:07:40 10° N 05:11:17 53° WNW 05:14:59 10° SSW
Cosmos 1455 Rocket 4.2 05:08:55 10° NW 05:12:20 22° W 05:15:44 10° SW
COSMOS 2487 3.8 05:12:03 12° WSW 05:14:05 19° WNW 05:16:33 10° NNW
Cosmos 2322 4.3 05:09:01 10° NW 05:14:09 36° WSW 05:19:15 10° S
USA 234 3.3 05:08:38 10° NE 05:15:09 73° NW 05:21:40 10° WSW
Cosmos 2112 Rocket 4.3 05:17:04 10° SW 05:22:04 45° WNW 05:27:09 10° N
Cosmos 1371 Rocket 4.1 05:18:21 10° NNW 05:23:22 53° WSW 05:28:24 10° S
Meteor 2-10 Rocket 3.6 05:19:10 10° NNW 05:24:02 51° W 05:28:51 10° S
Cosmos 1606 Rocket 4.4 05:20:22 10° N 05:24:42 56° ENE 05:28:58 10° SSE
Meteor 1-4 Rocket 3.6 05:25:15 10° NW 05:28:07 24° W 05:30:59 10° SSW
GEOS 3 Rocket 3.7 05:24:07 10° NE 05:29:17 83° SE 05:34:23 10° SW
Meteor 2-20 Rocket 4.4 05:24:22 10° SSW 05:30:27 69° W 05:36:33 10° N
SJ-7 4.4 05:28:14 10° N 05:32:21 78° WNW 05:36:31 10° SSW
IRAS Rocket 4.4 05:26:56 10° S 05:32:28 56° WSW 05:38:00 10° NNW
Cosmos 1624 Rocket 4.3 05:27:25 10° NNW 05:32:33 49° WSW 05:37:37 10° S
Meteor 1-24 Rocket 3.9 05:30:07 10° SSW 05:35:15 47° WNW 05:40:35 10° N
